When you browse on this site, cookies collect data to enhance your experience and personalize the content and advertising you see.
Visit our Privacy Policy to learn more. By continuing to use the site, you agree to this use of cookies and data.
  • In Österreich
  • Länderverzeichnis
  • Für 7 Tage
  • Wassertemperatur
  • Satellitenkarten
  • Wetterkarte
  • News
  • Widgets
  • user-avatar
    Anmelden

    Stündliche Wetter Kadyivka

    Heute, 21 Februar, Donnerstag

    Zeit Temperatur Niederschläge Wind Luftdruck Luftfeuchtigkeit
    00:00 +1°C° 0 mm 6 m/S 733 mmHg 79%
    01:00 -1°C° 0 mm 6 m/S 733 mmHg 79%
    02:00 0°C° 0 mm 4 m/S 733 mmHg 82%
    03:00 0°C° 0 mm 4 m/S 733 mmHg 81%
    04:00 0°C° 0 mm 5 m/S 734 mmHg 81%
    05:00 -1°C° 0 mm 6 m/S 734 mmHg 80%
    06:00 -1°C° 0 mm 6 m/S 734 mmHg 80%
    07:00 -1°C° 0 mm 6 m/S 734 mmHg 81%
    08:00 -2°C° 0 mm 6 m/S 734 mmHg 80%
    09:00 -1°C° 0 mm 6 m/S 735 mmHg 76%
    10:00 0°C° 0 mm 7 m/S 735 mmHg 72%
    11:00 0°C° 0 mm 7 m/S 735 mmHg 68%
    12:00 0°C° 0 mm 7 m/S 735 mmHg 68%
    13:00 +2°C° 0 mm 7 m/S 735 mmHg 68%
    14:00 +2°C° 0 mm 7 m/S 734 mmHg 68%
    15:00 +2°C° 0 mm 6 m/S 734 mmHg 72%
    16:00 +2°C° 0 mm 6 m/S 734 mmHg 77%
    17:00 +2°C° 0 mm 5 m/S 734 mmHg 82%
    18:00 +2°C° 0.2 mm 5 m/S 734 mmHg 85%
    19:00 +1°C° 0.2 mm 4 m/S 734 mmHg 88%
    20:00 +1°C° 0.2 mm 4 m/S 734 mmHg 91%
    21:00 +2°C° 0.6 mm 3 m/S 733 mmHg 91%
    22:00 +2°C° 0.6 mm 3 m/S 733 mmHg 91%
    23:00 +2°C° 0.6 mm 3 m/S 733 mmHg 91%

    Morgen, 22 Februar, Freitag

    Zeit Temperatur Niederschläge Wind Luftdruck Luftfeuchtigkeit
    00:00 0°C° 0.6 mm 4 m/S 733 mmHg 91%
    01:00 -1°C° 0.6 mm 4 m/S 733 mmHg 91%
    02:00 -2°C° 0.6 mm 4 m/S 732 mmHg 91%
    03:00 -3°C° 0.7 mm 4 m/S 732 mmHg 91%
    04:00 -5°C° 0.7 mm 5 m/S 732 mmHg 91%
    05:00 -6°C° 0.7 mm 5 m/S 732 mmHg 91%
    06:00 -6°C° 0.4 mm 6 m/S 733 mmHg 89%
    07:00 -6°C° 0.4 mm 6 m/S 733 mmHg 87%
    08:00 -8°C° 0.4 mm 6 m/S 734 mmHg 85%
    09:00 -8°C° 0.1 mm 7 m/S 735 mmHg 79%
    10:00 -8°C° 0.1 mm 7 m/S 736 mmHg 74%
    11:00 -8°C° 0.1 mm 7 m/S 737 mmHg 69%
    12:00 -8°C° 0 mm 7 m/S 737 mmHg 66%
    13:00 -8°C° 0 mm 7 m/S 738 mmHg 64%
    14:00 -8°C° 0 mm 7 m/S 739 mmHg 61%
    15:00 -9°C° 0 mm 7 m/S 739 mmHg 61%
    16:00 -9°C° 0 mm 7 m/S 739 mmHg 61%
    17:00 -9°C° 0 mm 7 m/S 740 mmHg 61%
    18:00 -11°C° 0 mm 7 m/S 740 mmHg 63%
    19:00 -11°C° 0 mm 7 m/S 741 mmHg 65%
    20:00 -11°C° 0 mm 6 m/S 741 mmHg 66%
    21:00 -11°C° 0 mm 7 m/S 742 mmHg 67%
    22:00 -11°C° 0 mm 7 m/S 742 mmHg 68%
    23:00 -11°C° 0 mm 7 m/S 742 mmHg 69%

    übermorgen, 23 Februar, Samstag

    Zeit Temperatur Niederschläge Wind Luftdruck Luftfeuchtigkeit
    00:00 -11°C° 0 mm 7 m/S 743 mmHg 68%
    01:00 -10°C° 0 mm 6 m/S 743 mmHg 68%
    02:00 -11°C° 0 mm 6 m/S 744 mmHg 67%
    03:00 -11°C° 0 mm 6 m/S 744 mmHg 68%
    04:00 -11°C° 0 mm 6 m/S 744 mmHg 68%
    05:00 -12°C° 0 mm 6 m/S 744 mmHg 69%
    06:00 -12°C° 0 mm 6 m/S 745 mmHg 69%
    07:00 -12°C° 0 mm 6 m/S 745 mmHg 70%
    08:00 -12°C° 0 mm 6 m/S 746 mmHg 71%
    09:00 -12°C° 0 mm 6 m/S 746 mmHg 69%
    10:00 -11°C° 0 mm 6 m/S 746 mmHg 67%
    11:00 -11°C° 0 mm 6 m/S 747 mmHg 66%
    12:00 -10°C° 0 mm 6 m/S 747 mmHg 65%
    13:00 -10°C° 0 mm 6 m/S 747 mmHg 65%
    14:00 -9°C° 0 mm 6 m/S 747 mmHg 64%
    15:00 -8°C° 0 mm 5 m/S 747 mmHg 64%
    16:00 -8°C° 0 mm 5 m/S 747 mmHg 65%
    17:00 -8°C° 0 mm 4 m/S 746 mmHg 65%
    18:00 -9°C° 0 mm 4 m/S 747 mmHg 68%
    19:00 -9°C° 0 mm 4 m/S 747 mmHg 70%
    20:00 -9°C° 0 mm 3 m/S 747 mmHg 73%
    21:00 -9°C° 0 mm 3 m/S 747 mmHg 74%
    22:00 -8°C° 0 mm 2 m/S 747 mmHg 75%
    23:00 -9°C° 0 mm 2 m/S 748 mmHg 76%

    24 Februar, Sonntag

    Zeit Temperatur Niederschläge Wind Luftdruck Luftfeuchtigkeit
    00:00 -9°C° 0 mm 2 m/S 747 mmHg 76%
    01:00 -9°C° 0 mm 2 m/S 747 mmHg 77%
    02:00 -9°C° 0 mm 2 m/S 747 mmHg 77%
    03:00 -9°C° 0 mm 2 m/S 747 mmHg 76%
    04:00 -9°C° 0 mm 2 m/S 747 mmHg 76%
    05:00 -9°C° 0 mm 2 m/S 747 mmHg 75%
    06:00 -9°C° 0 mm 2 m/S 747 mmHg 74%
    07:00 -8°C° 0 mm 2 m/S 747 mmHg 73%
    08:00 -8°C° 0 mm 2 m/S 747 mmHg 72%
    09:00 -7°C° 0 mm 2 m/S 747 mmHg 67%
    10:00 -6°C° 0 mm 2 m/S 747 mmHg 61%
    11:00 -5°C° 0 mm 3 m/S 747 mmHg 56%
    12:00 -5°C° 0 mm 3 m/S 747 mmHg 53%
    13:00 -4°C° 0 mm 3 m/S 747 mmHg 50%
    14:00 -2°C° 0 mm 3 m/S 747 mmHg 48%
    15:00 -2°C° 0 mm 3 m/S 746 mmHg 51%
    16:00 -2°C° 0 mm 2 m/S 746 mmHg 54%
    17:00 -3°C° 0 mm 2 m/S 746 mmHg 57%
    18:00 -3°C° 0 mm 2 m/S 746 mmHg 60%
    19:00 -4°C° 0 mm 2 m/S 746 mmHg 63%
    20:00 -4°C° 0 mm 2 m/S 746 mmHg 66%
    21:00 -5°C° 0 mm 3 m/S 746 mmHg 67%
    22:00 -5°C° 0 mm 3 m/S 747 mmHg 68%
    23:00 -6°C° 0 mm 3 m/S 747 mmHg 69%

    25 Februar, Montag

    Zeit Temperatur Niederschläge Wind Luftdruck Luftfeuchtigkeit
    00:00 -5°C° 0 mm 3 m/S 746 mmHg 69%
    01:00 -5°C° 0 mm 3 m/S 746 mmHg 68%
    02:00 -5°C° 0 mm 3 m/S 746 mmHg 67%
    03:00 -5°C° 0 mm 3 m/S 746 mmHg 69%
    04:00 -5°C° 0 mm 3 m/S 746 mmHg 70%
    05:00 -6°C° 0 mm 3 m/S 745 mmHg 71%
    06:00 -5°C° 0 mm 3 m/S 745 mmHg 72%
    07:00 -5°C° 0 mm 3 m/S 745 mmHg 74%
    08:00 -5°C° 0 mm 4 m/S 745 mmHg 75%
    09:00 -4°C° 0 mm 4 m/S 745 mmHg 71%
    10:00 -2°C° 0 mm 5 m/S 745 mmHg 67%
    11:00 -1°C° 0 mm 5 m/S 745 mmHg 63%
    12:00 0°C° 0 mm 5 m/S 744 mmHg 65%
    13:00 +1°C° 0 mm 5 m/S 743 mmHg 67%
    14:00 +1°C° 0 mm 5 m/S 743 mmHg 69%
    15:00 +1°C° 0 mm 5 m/S 742 mmHg 73%
    16:00 0°C° 0 mm 5 m/S 742 mmHg 77%
    17:00 0°C° 0 mm 5 m/S 742 mmHg 81%
    18:00 -1°C° 0 mm 6 m/S 742 mmHg 85%
    19:00 -2°C° 0 mm 6 m/S 742 mmHg 89%
    20:00 -2°C° 0 mm 6 m/S 742 mmHg 93%
    21:00 -2°C° 0 mm 6 m/S 742 mmHg 92%
    22:00 -2°C° 0 mm 6 m/S 742 mmHg 91%
    23:00 -1°C° 0 mm 5 m/S 741 mmHg 91%

    26 Februar, Dienstag

    Zeit Temperatur Niederschläge Wind Luftdruck Luftfeuchtigkeit
    00:00 -1°C° 0 mm 5 m/S 741 mmHg 91%
    01:00 -3°C° 0 mm 6 m/S 741 mmHg 92%
    02:00 -3°C° 0 mm 6 m/S 740 mmHg 92%
    03:00 -3°C° 0 mm 6 m/S 740 mmHg 92%
    04:00 -3°C° 0 mm 6 m/S 739 mmHg 91%
    05:00 -3°C° 0 mm 6 m/S 738 mmHg 90%
    06:00 -3°C° 0 mm 6 m/S 738 mmHg 90%
    07:00 -3°C° 0 mm 6 m/S 737 mmHg 91%
    08:00 -3°C° 0 mm 6 m/S 737 mmHg 91%
    09:00 -2°C° 0 mm 6 m/S 736 mmHg 90%
    10:00 -2°C° 0 mm 6 m/S 736 mmHg 89%
    11:00 -2°C° 0 mm 7 m/S 735 mmHg 88%
    12:00 -1°C° 0 mm 7 m/S 735 mmHg 87%
    13:00 -1°C° 0 mm 7 m/S 735 mmHg 86%
    14:00 -1°C° 0 mm 6 m/S 734 mmHg 85%
    15:00 -1°C° 0 mm 6 m/S 734 mmHg 86%
    16:00 -1°C° 0 mm 6 m/S 733 mmHg 88%
    17:00 0°C° 0 mm 5 m/S 733 mmHg 89%
    18:00 -1°C° 0 mm 6 m/S 733 mmHg 90%
    19:00 -1°C° 0 mm 6 m/S 732 mmHg 90%
    20:00 -2°C° 0 mm 6 m/S 732 mmHg 91%
    21:00 -2°C° 0 mm 7 m/S 731 mmHg 90%
    22:00 -1°C° 0 mm 7 m/S 731 mmHg 90%
    23:00 -1°C° 0 mm 8 m/S 730 mmHg 89%
    Mehr zeigen